"Pseudo-MPEC" for C5R6YF2

Created 2021 Jun 13 1:07:20 UT using Find_Orb

Click here for an explanation of pseudo-MPECs

 
 Astrometry: 
     C5R6YF2  C2021 06 11.30029916 20 11.54 -07 50 12.8    ~6B87 20.14GVNEOCPG96
     C5R6YF2  C2021 06 11.30557816 20 11.55 -07 48 12.8    ~6B87 19.97GVNEOCPG96
     C5R6YF2  C2021 06 11.31083216 20 11.55 -07 46 13.4    ~6B87 19.89GVNEOCPG96
     C5R6YF2  C2021 06 11.31607916 20 11.59 -07 44 13.1    ~6B87 20.20GVNEOCPG96
     C5R6YF2 KC2021 06 11.35369216 20 11.71 -07 29 57.7    ~6B97 19.53GVNEOCPI52
     C5R6YF2 KC2021 06 11.35570116 20 11.73 -07 29 11.8    ~6B97 20.04GVNEOCPI52
     C5R6YF2 KC2021 06 11HC/Hv#qdI%t]Ewjqlej/[!Nx6iCDs%RAHbCDAstrometry?;bht]474
     C5R6YF2 KC2021 06 11?4Jredacted;kZ6[Cq6rJLamK5rW0t?Tr9I[[Cra=`f.tC=MY5w_474
     C5R6YF2 KC2021 06 11Qk0f=hP8a*0SE\Q=wn#cQ?EomX^j=55NU-p,y1j/2x/HOLyC*cE[474
     C5R6YF2 KC2021 06 11(D*Oi@sX/!hqt;)%o4=k:p4DY3Z1dkg-eafubTk4(aqFff=T].nS474
     C5R6YF2 KC2021 06 11wmgd')vEN=Sn$siA'4Ucuc;lI)5r\2?IvF,LE5jR)HKLC,`Ro6XY474
     C5R6YF2  C2021 06 11+J_USN'j:F9kFqk5aDdIj-0*`%@8CR5P@u4fb47S#yQA=!eJ1odjN51
     C5R6YF2  C2021 06 11j)]p5_VoUQjqe0YSH2V!dQr?B*e-tUjW%JFZs1`jvKI)M6_(js,BN51
     C5R6YF2 KC2021 06 11#L)Q'M/awU%XKSCfCt7m#d]=l]-l0:h3@LdGyMbQ]Bcbu,Nre?^)B37
     C5R6YF2 KC2021 06 11!O9.uId\B6!Di(,te(7NWDP$BobKrcU1LP[N:qq*L;NU!H@^`H;^B37
     C5R6YF2 KC2021 06 11%kGaYL3v'DHXYQLQH1W=_2ra-VGUr_4=V[$5b7eC64Uoe(gmX^RDB37
     C5R6YF2 hC2021 06 12V9Q3;a_Tu01[clickysLepbSL2.f_!xC-CSFtf;[%p1(ZBcZoiyeL01
     C5R6YF2 hC2021 06 12RRkdhereJy*/T),aL_b#6+MGgbi*B8tu#LMojwHN`#WFd)+L*e*tL01
     C5R6YF2 hC2021 06 12qWA8?dforC;q6Yw=NgnQoTTMrV`E:K)hv`/5ZM2OO)f/]7GRh,viL01
     C5R6YF2 hC2021 06 12ao!nnLw]#7FlKt$!#aA2g$$h0F^qCNXl(3`P97g(4.Tbf/eM*Rn.L01
     C5R6YF2 KC2021 06 12V\?A6yIHk+5+5Nv#k%kS3-tBrGLJp4ZR-7Mw6Py\54AKc(.CM;VZH21
     C5R6YF2 KC2021 06 125R,7XW-lk9(AwsqQ/-eP2NH:6kgR!!g--XeexplanationeX0%2lH21
     C5R6YF2 KC2021 06 12c?q:NXYj.'^yM%Q(Zr6hQU`pgJOy=Oc6!W?Y7x$FYy`BPiYD-4+XH21
     C5R6YF2 KC2021 06 12.20568016 20 49.65 -02 24 47.7    ~6C5M 19.85GVNEOCPI52
     C5R6YF2 KC2021 06 12.20848916 20 49.71 -02 23 50.8    ~6C5M 19.93GVNEOCPI52
     C5R6YF2 KC2021 06 12U-UL7rc8P\Kg4OgmlfThpwDM0i4xNlT)007(s)2UTi*A6PbDr2u_858
     C5R6YF2 KC2021 06 12.20928216 20 49.69 -02 23 35.0    ~6C5M 19.63GVNEOCPI52
     C5R6YF2 KC2021 06 12.21007216 20 49.67 -02 23 18.8    ~6C5M 20.47GVNEOCPI52
     C5R6YF2 KC2021 06 12+_t*3@^q@n'1Q:c/o=RS_B]!AU3KMH1!RxAjo_vMjPBS9kKEx0h[858
     C5R6YF2 KC2021 06 121/jxKoKMZLYYHJNdc%kSU3,oXWnVA\k,E[_K+0Re72x_\'IE,nxa858
     C5R6YF2 KC2021 06 12.98193416 21 14.58 +01 44 08.5    ~6D0M       VNEOCPI93
     C5R6YF2 KC2021 06 12.99313316 21 14.66 +01 47 32.6    ~6D0M 20.2 GVNEOCPI93

Station data:
(474) Mount John Observatory, Lake Tekapo  (S43.987388 E170.464960)  New
   Zealand.  Observers A. C. Gilmore, P. M. Kilmartin. Measurer P. M.
   Kilmartin. 1.0-m f/7.7 reflector + CCD.
(858) Tebbutt Observatory, Edgewood  (N35.093872 W106.220000)  US/New Mexico.
(B37) Obs. de L' Ametlla del Valles, Barcelona  (N41.651215 E2.259340)  Spain.
(G96) Mt. Lemmon Survey  (N32.442754 W110.788720)  US/Arizona.  Observers T.
   A. Pruyne, B. M. Africano, E. J. Christensen, G. A. Farneth, D. C. Fuls,
   A. R. Gibbs, A. D. Grauer, H. Gröller, J. A. Johnson, R. A. Kowalski, S.
   M. Larson, G. J. Leonard, D. Rankin, R. L. Seaman, F. C. Shelly. 1.5-m
   reflector + 10K CCD.
(H21) Astronomical Research Observatory, Westfield  (N39.483057 W87.968270)
   US/Illinois. 0.76-m f/3.0 astrograph + CCD.
(I52) Steward Observatory, Mt. Lemmon Station  (N32.442547 W110.788920)
   US/Arizona.  Observers T. A. Pruyne, B. M. Africano, E. J. Christensen, G.
   A. Farneth, D. C. Fuls, A. R. Gibbs, A. D. Grauer, H. Gröller, J. A.
   Johnson, R. A. Kowalski, S. M. Larson, G. J. Leonard, D. Rankin, R. L.
   Seaman, F. C. Shelly. 1.0-m reflector + CCD.
(I93) St Pardon de Conques  (N44.558710 W0.203000)  France.  Observer F.
   Losse. 0.40-m f/3.7 reflector + CCD.
(L01) Višnjan Observatory, Tičan  (N45.290900 E13.749300)  Croatia.
   Observers K. Korlević, E. Pettarin. Measurer E. Pettarin. 1.0-m f/2.9
   reflector + CCD.
(N51) GROWTH India Telescope, IAO, Hanle  (N32.779244 E78.964610)  India.

Orbital elements:  C5R6YF2
   Perihelion 2021 May 2.334204 +/- 0.211336 TT =  8:01:15 (JD 2459336.834204)
Epoch 2021 Jun 12.0 TT = JDT 2459377.5   Earth MOID: 0.0698   Ma: 0.0122
M  25.86082691 +/- 0.2424147        (J2000 ecliptic)          AutoNEOCP
n   0.63593559 +/- 0.00269          Peri.  322.27556 +/- 0.1973580
a   1.33924682 +/- 0.00377659       Node   257.66341 +/- 0.0026803
e   0.2193574 +/- 0.0019372         Incl.   32.43041 +/- 0.1045167
P   1.55/566.08d           H 24.7   G  0.15   U  8.8  
q 1.04547306 +/- 0.000371618    Q 1.63302059 +/- 0.00721362
From 32 observations 2021 June 11-12 (40.6 hr); mean residual 0".86
Residuals in arcseconds: 
210611 G96  .29-  .60+    210611 N51  .83+  3.6-    210612 H21  .07-  .63+    
210611 G96  .25-  .07+    210611 N51  2.1+  4.2-    210612 I52  .54-  .73+    
210611 G96  .38-  .42-    210611 B37  .70+  .07+    210612 I52  .27+  .60+    
210611 G96  .05+  .21+    210611 B37  .53+  .61+    210612 858  .02+  .43+    
210611 I52  .44-  .35-    210611 B37  .44+  .98+    210612 I52  .06-  .30+    
210611 I52  .33-  .07-    210612 L01  .05-  .41+    210612 I52  .38-  .47+    
210611 474  .36-  .70+    210612 L01  .20-  .46+    210612 858  .15-  .20+    
210611 474  .19-  .74+    210612 L01  .13-  .19+    210612 858  .02-  .58+    
210611 474  .47-  .48+    210612 L01  .09-  .02-    210612 I93  .59-  .32-    
210611 474  .31-  .60+    210612 H21  .05-  .71+    210612 I93  .38-  .24-    
210611 474  .44-  .45+    210612 H21  .00   .76+    

Ephemerides (geocentric):
Date (UTC) HH   RA              Dec         delta   r     elong  mag " sig PA
---- -- -- --  -------------   -----------  ------ ------ -----  --- ---- ---
2021 06 13 01  16 21 17.462   +02 03 19.60  .08934 1.0941 150.4 20.9 .294 169
2021 06 13 02  16 21 18.909   +02 15 50.19  .08960 1.0942 150.2 20.9 .296 169
2021 06 13 03  16 21 20.351   +02 28 16.30  .08986 1.0943 150.0 20.9 .298 168
2021 06 13 04  16 21 21.790   +02 40 37.97  .09012 1.0944 149.8 20.9 .300 168
2021 06 13 05  16 21 23.226   +02 52 55.20  .09039 1.0945 149.6 20.9 .302 167
2021 06 13 06  16 21 24.657   +03 05 08.01  .09065 1.0946 149.4 21.0 .304 167
2021 06 13 07  16 21 26.085   +03 17 16.43  .09092 1.0947 149.2 21.0 .306 167
2021 06 13 08  16 21 27.509   +03 29 20.47  .09119 1.0948 149.0 21.0 .307 166
2021 06 13 09  16 21 28.929   +03 41 20.15  .09146 1.0949 148.8 21.0 .309 166
2021 06 13 10  16 21 30.346   +03 53 15.49  .09173 1.0950 148.6 21.0 .310 165
2021 06 13 11  16 21 31.760   +04 05 06.51  .09200 1.0951 148.4 21.0 .311 165
2021 06 13 12  16 21 33.170   +04 16 53.23  .09227 1.0951 148.2 21.0 .312 165
2021 06 13 13  16 21 34.576   +04 28 35.67  .09255 1.0952 148.0 21.0 .313 164
2021 06 13 14  16 21 35.979   +04 40 13.84  .09282 1.0953 147.8 21.0 .314 164
2021 06 13 15  16 21 37.379   +04 51 47.78  .09310 1.0954 147.6 21.1 .315 164
2021 06 13 16  16 21 38.775   +05 03 17.50  .09338 1.0955 147.5 21.1 .316 163
2021 06 13 17  16 21 40.168   +05 14 43.02  .09365 1.0956 147.3 21.1 .316 163
2021 06 13 18  16 21 41.558   +05 26 04.36  .09393 1.0957 147.1 21.1 .316 163
2021 06 13 19  16 21 42.945   +05 37 21.54  .09421 1.0958 146.9 21.1 .317 162
2021 06 13 20  16 21 44.328   +05 48 34.59  .09450 1.0959 146.7 21.1 .317 162
2021 06 13 21  16 21 45.709   +05 59 43.52  .09478 1.0960 146.5 21.1 .317 162
2021 06 13 22  16 21 47.086   +06 10 48.36  .09506 1.0961 146.3 21.1 .317 161
2021 06 13 23  16 21 48.460   +06 21 49.12  .09535 1.0962 146.2 21.1 .317 161
2021 06 14 00  16 21 49.831   +06 32 45.84  .09563 1.0963 146.0 21.2 .316 161
2021 06 14 01  16 21 51.199   +06 43 38.52  .09592 1.0964 145.8 21.2 .316 160
2021 06 14 02  16 21 52.565   +06 54 27.20  .09621 1.0964 145.6 21.2 .315 160
2021 06 14 03  16 21 53.927   +07 05 11.89  .09649 1.0965 145.5 21.2 .315 160
2021 06 14 04  16 21 55.286   +07 15 52.62  .09678 1.0966 145.3 21.2 .314 159
2021 06 14 05  16 21 56.643   +07 26 29.40  .09708 1.0967 145.1 21.2 .313 159
2021 06 14 06  16 21 57.997   +07 37 02.26  .09737 1.0968 144.9 21.2 .312 159
2021 06 14 07  16 21 59.348   +07 47 31.23  .09766 1.0969 144.8 21.2 .311 158
2021 06 14 08  16 22 00.696   +07 57 56.32  .09795 1.0970 144.6 21.2 .310 158
2021 06 14 09  16 22 02.042   +08 08 17.55  .09825 1.0971 144.4 21.3 .309 158
2021 06 14 10  16 22 03.385   +08 18 34.96  .09854 1.0972 144.2 21.3 .307 157
2021 06 14 11  16 22 04.725   +08 28 48.55  .09884 1.0973 144.1 21.3 .306 157
2021 06 14 12  16 22 06.063   +08 38 58.35  .09914 1.0974 143.9 21.3 .304 157
2021 06 14 13  16 22 07.398   +08 49 04.39  .09943 1.0975 143.7 21.3 .303 157
2021 06 14 14  16 22 08.730   +08 59 06.69  .09973 1.0976 143.6 21.3 .301 156
2021 06 14 15  16 22 10.060   +09 09 05.26  .10003 1.0977 143.4 21.3 .299 156
2021 06 14 16  16 22 11.388   +09 19 00.14  .10033 1.0978 143.2 21.3 .297 156
2021 06 14 17  16 22 12.713   +09 28 51.34  .10064 1.0979 143.1 21.3 .295 155
2021 06 14 18  16 22 14.036   +09 38 38.88  .10094 1.0980 142.9 21.4 .293 155
2021 06 14 19  16 22 15.356   +09 48 22.79  .10124 1.0980 142.7 21.4 .291 155
2021 06 14 20  16 22 16.674   +09 58 03.09  .10155 1.0981 142.6 21.4 .289 154
2021 06 14 21  16 22 17.990   +10 07 39.80  .10185 1.0982 142.4 21.4 .286 154
2021 06 14 22  16 22 19.303   +10 17 12.95  .10216 1.0983 142.3 21.4 .284 154
2021 06 14 23  16 22 20.614   +10 26 42.55  .10246 1.0984 142.1 21.4 .281 153
2021 06 15 00  16 22 21.923   +10 36 08.63  .10277 1.0985 141.9 21.4 .278 153